Miscellaneous Local Product
Issued by NWS Hastings, NE

Home | Current Version | Previous Version | Text Only | Print | Product List | Glossary Off
Versions: 1 2 3 4 5 6 7 8 9 10 11 12 13 14 15 16 17 18 19 20 21 22 23 24 25 26 27 28 29 30 31 32 33 34 35 36 37 38 39 40 41 42 43 44 45 46 47 48 49 50

000
AXUS43 KGID 300202
MISGRI

GID CWA HOURLY WEATHER ROUNDUP
NATIONAL WEATHER SERVICE HASTINGS NE
900 PM CDT TUE JUL 29 2014

NOTE: "FAIR" INDICATES FEW OR NO CLOUDS BELOW 12,000 FEET WITH NO
SIGNIFICANT WEATHER AND/OR OBSTRUCTIONS TO VISIBILITY.

...SOUTH CENTRAL NEBRASKA...

CITY           SKY/WX    TMP DP  RH WIND       PRES   REMARKS
GRAND ISLAND   CLOUDY    70  59  68 E5        30.14F
HASTINGS       MOCLDY    72  57  59 E5        30.13F
KEARNEY        CLOUDY    70  59  68 E6        30.14F
ORD            CLOUDY    70  60  70 E3        30.13F
YORK           MOCLDY    68  59  73 E5        30.14S
AURORA         MOCLDY    69  62  78 CALM      30.14F
LEXINGTON      CLOUDY    73  61  65 E9        30.13F
HOLDREGE       CLOUDY    69  60  72 E7        30.13S
HEBRON         PTCLDY    72  55  55 NE7       30.11F

...NEBRASKA PANHANDLE...

CITY           SKY/WX    TMP DP  RH WIND       PRES   REMARKS
CHADRON        LGT RAIN  68  58  70 NE5       30.20F
ALLIANCE       CLOUDY    68  60  75 E5        30.20F
SCOTTSBLUFF    LGT RAIN  66  62  87 SE7       30.22R
SIDNEY         CLOUDY    66  55  67 E17       30.20R

...WESTERN AND NORTH CENTRAL NEBRASKA...

CITY           SKY/WX    TMP DP  RH WIND       PRES   REMARKS
VALENTINE      CLEAR     72  50  45 CALM      30.17S
AINSWORTH      PTCLDY    69  55  62 CALM      30.17S
ONEILL         MOCLDY    69  55  59 E8        30.15S
BROKEN BOW     CLOUDY    71  62  73 E3        30.15S
IMPERIAL       CLOUDY    76  58  53 E16       30.13R
NORTH PLATTE   CLOUDY    68  64  87 N5        30.14F
MCCOOK         CLOUDY    75  58  55 E15       30.11R

...EASTERN NEBRASKA...

CITY           SKY/WX    TMP DP  RH WIND       PRES   REMARKS
NORFOLK        CLOUDY    69  55  60 E3        30.14R
SO SIOUX CITY  CLEAR     67  56  67 CALM      30.11S
TEKAMAH        PTCLDY    66  58  75 CALM      30.11S
ALBION         CLOUDY    67  59  74 E6        30.15S
OMAHA EPPLEY   MOCLDY    72  56  57 CALM      30.11S
MILLARD        PTCLDY    72  56  55 CALM      30.11S
LINCOLN        MOCLDY    71  55  56 NE3       30.13S
NEBRASKA CITY  MOCLDY    68  57  67 NE3       30.12R
BEATRICE       PTCLDY    70  58  65 NE6       30.12S
FALLS CITY     MOCLDY    72  59  63 NE3       30.09S

...NORTHERN KANSAS...

CITY           SKY/WX    TMP DP  RH WIND       PRES   REMARKS
GOODLAND       CLOUDY    76  61  59 SE10      30.10S
HILL CITY      CLOUDY    78  56  46 E13       30.09R
NORTON         CLEAR     75  50  41 E9        30.10R
PHILLIPSBURG   CLEAR     79  55  44 E16       30.09S
SMITH CENTER   CLEAR     73  57  56 NE9       30.11R
HAYS           CLOUDY    81  57  44 E15G23    30.08R
RUSSELL        CLOUDY    77  57  50 E14       30.06S
CONCORDIA      MOCLDY    75  60  59 NE10      30.09F
SALINA         MOCLDY    79  59  50 E8        30.07S
TOPEKA         MOCLDY    75  60  59 E6        30.08S



USA.gov is the U.S. government's official web portal to all federal, state and local government web resources and services.